GW4034 Weather Reports


Display with metric or nautical units.
time (UTC)temp
F
wind
direction
speed
MPH
gust
MPH
rain 1hr
in
rain 24hr
in
rain mn
in
humidity
%
barometer
mb
20260507014942 59 204 0.0 0.0 0.05 0.08 0.08 93 1012.4
20260507014438 59 204 0.0 0.0 0.05 0.08 0.08 93 1012.4
20260507013934 59 204 0.0 0.0 0.00 0.07 0.07 93 1012.3
20260507013431 59 204 0.0 0.0 0.00 0.07 0.07 93 1012.4
20260507012929 59 203 0.0 0.0 0.00 0.07 0.07 93 1012.3
20260507012426 59 207 0.0 0.0 0.00 0.07 0.07 92 1012.4
20260507011922 59 194 0.0 0.0 0.00 0.07 0.07 93 1012.1
20260507011420 59 190 0.0 0.0 0.00 0.07 0.07 92 1012.3
20260507010914 59 176 0.0 0.0 0.00 0.07 0.07 92 1012.3
20260507010409 59 193 0.0 0.0 0.00 0.07 0.07 92 1012.3
20260507005907 59 198 0.0 0.0 0.00 0.07 0.07 92 1012.3
20260507005404 59 165 0.0 0.0 0.00 0.07 0.07 92 1012.5
20260507004900 59 165 0.0 0.0 0.00 0.07 0.07 92 1012.5
20260507004357 58 167 0.0 0.0 0.00 0.07 0.07 92 1012.1
20260507003854 58 186 0.0 0.0 0.00 0.07 0.07 92 1012.2
20260507003350 59 192 0.0 0.0 0.00 0.07 0.07 92 1012.0
20260507002845 59 174 0.0 0.0 0.00 0.07 0.07 92 1012.1
20260507002341 59 185 0.0 0.0 0.00 0.07 0.07 92 1012.1
20260507001839 59 197 1.0 1.0 0.00 0.07 0.07 92 1012.1
20260507001335 59 178 0.0 0.0 0.00 0.07 0.07 92 1012.0
20260507000832 59 183 0.0 0.0 0.00 0.07 0.07 92 1012.0
20260507000328 59 170 1.0 1.0 0.00 0.07 0.07 92 1011.9
20260506235824 60 178 0.0 0.0 0.00 0.07 0.07 92 1011.7
20260506235321 60 172 0.0 0.0 0.00 0.07 0.07 92 1011.8
20260506234817 60 181 0.0 0.0 0.00 0.07 0.07 92 1011.9
20260506234315 60 178 0.0 0.0 0.00 0.07 0.07 92 1011.9
20260506233812 60 169 0.0 0.0 0.00 0.07 0.07 92 1012.1
20260506233308 60 181 0.0 1.0 0.00 0.07 0.07 92 1012.1
20260506232805 60 171 0.0 0.0 0.00 0.07 0.07 92 1012.0
20260506232300 60 205 0.0 1.0 0.00 0.07 0.07 92 1012.0
20260506231757 60 181 0.0 0.0 0.00 0.07 0.07 92 1012.2
20260506231255 60 191 0.0 0.0 0.00 0.07 0.07 92 1012.1
20260506230752 60 191 0.0 0.0 0.00 0.07 0.07 92 1012.1
20260506230248 60 187 0.0 1.0 0.00 0.07 0.07 92 1012.0
20260506225745 60 209 0.0 0.0 0.00 0.07 0.07 93 1011.8
20260506225242 60 164 0.0 1.0 0.00 0.07 0.07 93 1011.7
20260506224738 60 191 0.0 1.0 0.00 0.07 0.07 93 1011.8
20260506224236 60 192 1.0 1.0 0.00 0.07 0.07 93 1011.8
20260506223732 60 213 1.0 1.0 0.00 0.07 0.07 93 1011.8
20260506223227 60 189 0.0 0.0 0.00 0.07 0.07 93 1011.9
20260506222725 60 179 0.0 1.0 0.00 0.07 0.07 93 1011.7
20260506222220 60 174 0.0 0.0 0.00 0.07 0.07 93 1011.7
20260506221718 60 180 0.0 0.0 0.00 0.07 0.07 93 1011.6
20260506221216 60 177 1.0 2.0 0.00 0.07 0.07 93 1011.7
20260506220713 60 227 2.0 3.0 0.00 0.07 0.07 93 1011.4
20260506220208 60 227 2.0 3.0 0.00 0.07 0.07 93 1011.4
20260506215705 60 199 0.0 0.0 0.00 0.07 0.07 93 1011.7
20260506215200 60 200 0.0 0.0 0.00 0.07 0.07 93 1011.4
20260506214652 60 198 1.0 1.0 0.00 0.07 0.07 93 1011.4
20260506214149 60 180 0.0 0.0 0.00 0.07 0.07 93 1011.2
20260506213648 60 290 1.0 1.0 0.00 0.07 0.07 93 1011.4
20260506213144 60 224 1.0 2.0 0.00 0.07 0.07 93 1011.3
20260506212641 60 205 1.0 1.0 0.00 0.07 0.07 93 1011.4
20260506212136 59 198 0.0 0.0 0.00 0.07 0.07 93 1011.3
20260506211632 59 178 0.0 0.0 0.00 0.07 0.07 93 1011.2
20260506211129 59 197 0.0 1.0 0.00 0.07 0.07 93 1011.2
20260506210626 60 203 1.0 1.0 0.00 0.07 0.07 93 1011.2
20260506210122 60 177 0.0 0.0 0.00 0.07 0.07 93 1011.1
20260506205619 60 222 2.0 2.0 0.00 0.07 0.07 93 1011.0
20260506205114 60 178 0.0 1.0 0.00 0.07 0.07 93 1011.3
20260506204612 60 184 0.0 1.0 0.00 0.07 0.07 93 1010.9
20260506204109 60 209 0.0 0.0 0.00 0.07 0.07 93 1011.2
20260506203607 60 177 0.0 0.0 0.00 0.07 0.07 93 1011.4
20260506203103 60 185 0.0 1.0 0.00 0.07 0.07 93 1011.2
20260506202601 60 171 1.0 2.0 0.00 0.07 0.07 93 1011.3
20260506202057 59 213 0.0 1.0 0.00 0.07 0.07 92 1011.2
20260506201555 59 193 1.0 1.0 0.00 0.07 0.07 92 1011.4
20260506201051 59 168 1.0 1.0 0.07 0.07 0.07 92 1011.5
20260506200547 59 176 0.0 0.0 0.07 0.07 0.07 92 1011.5
20260506200044 59 165 0.0 1.0 0.00 0.06 0.06 92 1011.6
20260506195541 59 175 1.0 1.0 0.00 0.06 0.06 91 1011.7
20260506195037 59 171 0.0 0.0 0.00 0.06 0.06 91 1011.7
20260506194535 59 181 0.0 0.0 0.07 0.06 0.06 91 1012.0
20260506194031 59 169 1.0 1.0 0.07 0.06 0.06 90 1012.0
20260506193529 59 170 1.0 2.0 0.00 0.05 0.05 90 1012.1
20260506193026 60 119 0.0 1.0 0.00 0.05 0.05 90 1012.1
20260506192523 60 181 0.0 1.0 0.00 0.05 0.05 90 1012.2
20260506192018 60 165 1.0 2.0 0.00 0.05 0.05 90 1012.2
20260506191515 60 188 0.0 0.0 0.00 0.05 0.05 90 1012.2
20260506191012 60 162 0.0 0.0 0.00 0.05 0.05 90 1012.1
20260506190509 60 168 0.0 1.0 0.00 0.05 0.05 90 1012.0
20260506190006 60 172 1.0 1.0 0.00 0.05 0.05 89 1012.0
20260506185504 60 168 0.0 0.0 0.00 0.05 0.05 89 1012.2
20260506185000 60 147 3.0 4.0 0.00 0.05 0.05 88 1012.2
20260506184457 61 162 2.0 3.0 0.00 0.05 0.05 88 1012.3
20260506183954 61 155 0.0 1.0 0.00 0.05 0.05 88 1012.3
20260506183449 61 177 1.0 1.0 0.00 0.05 0.05 87 1012.5
20260506182946 62 196 1.0 1.0 0.00 0.05 0.05 87 1012.4
20260506182444 61 172 0.0 0.0 0.00 0.05 0.05 88 1012.6
20260506181941 61 192 2.0 2.0 0.00 0.05 0.05 88 1012.5
20260506181439 62 228 4.0 4.0 0.00 0.05 0.05 88 1012.7
20260506180935 61 189 1.0 1.0 0.05 0.05 0.05 88 1012.7
20260506180432 61 170 0.0 0.0 0.05 0.05 0.05 89 1012.7
20260506175929 61 179 0.0 0.0 0.00 0.04 0.04 89 1013.0
20260506175425 60 237 1.0 2.0 0.07 0.04 0.04 89 1012.7
20260506174917 60 224 0.0 1.0 0.07 0.04 0.04 89 1012.7
20260506174414 60 170 0.0 1.0 0.05 0.03 0.03 88 1012.6
20260506173912 60 195 0.0 1.0 0.05 0.03 0.03 87 1012.5
20260506173408 60 172 1.0 2.0 0.00 0.02 0.02 87 1012.6
20260506172906 60 190 0.0 1.0 0.00 0.02 0.02 86 1012.8
20260506172402 60 163 0.0 1.0 0.00 0.02 0.02 87 1012.7
20260506171859 61 176 0.0 1.0 0.00 0.02 0.02 86 1012.9
20260506171356 61 186 1.0 1.0 0.00 0.02 0.02 86 1012.9
20260506170853 61 159 0.0 0.0 0.00 0.02 0.02 85 1013.2
20260506170349 61 174 0.0 1.0 0.07 0.02 0.02 85 1012.8
20260506165844 61 171 0.0 0.0 0.07 0.02 0.02 85 1013.0
20260506165341 62 169 0.0 0.0 0.05 0.01 0.01 84 1013.2
20260506164837 62 169 0.0 0.0 0.05 0.01 0.01 84 1013.2
20260506164334 63 164 0.0 0.0 0.00 0.00 0.00 82 1013.5
20260506163831 63 170 0.0 0.0 0.00 0.00 0.00 81 1013.4
20260506163326 63 164 1.0 1.0 0.00 0.00 0.00 79 1013.9
20260506162821 64 160 0.0 1.0 0.00 0.00 0.00 78 1013.8
20260506162319 64 170 1.0 2.0 0.00 0.00 0.00 77 1013.9
20260506161816 64 198 2.0 3.0 0.00 0.00 0.00 76 1014.0
20260506161313 66 155 0.0 0.0 0.00 0.00 0.00 75 1013.8
20260506160812 66 155 0.0 0.0 0.00 0.00 0.00 75 1013.8
20260506160308 66 173 1.0 2.0 0.00 0.00 0.00 74 1013.9
20260506155807 66 162 0.0 0.0 0.00 0.00 0.00 75 1013.7
20260506155306 66 162 0.0 0.0 0.00 0.00 0.00 76 1013.9
20260506153415 66 165 0.0 1.0 0.00 0.00 0.00 75 1014.0
20260506152913 66 190 3.0 6.0 0.00 0.00 0.00 74 1014.0
20260506152409 66 176 1.0 1.0 0.00 0.00 0.00 73 1014.3
20260506151908 66 176 1.0 1.0 0.00 0.00 0.00 73 1014.3
20260506151404 67 159 1.0 1.0 0.00 0.00 0.00 72 1014.4
20260506150902 67 172 1.0 2.0 0.00 0.00 0.00 72 1014.0
20260506150358 68 211 2.0 3.0 0.00 0.00 0.00 71 1014.3
20260506145855 68 185 1.0 2.0 0.00 0.00 0.00 71 1014.1
20260506145351 67 176 0.0 0.0 0.00 0.00 0.00 72 1013.9
20260506144849 66 174 0.0 1.0 0.00 0.00 0.00 73 1013.9
20260506144345 67 168 0.0 1.0 0.00 0.00 0.00 73 1013.9
20260506143844 67 142 1.0 2.0 0.00 0.00 0.00 71 1013.9
20260506143340 67 153 0.0 1.0 0.00 0.00 0.00 72 1013.9
20260506142839 67 207 0.0 1.0 0.00 0.00 0.00 73 1013.7
20260506142336 67 149 2.0 2.0 0.00 0.00 0.00 72 1013.9
20260506141835 67 168 2.0 3.0 0.00 0.00 0.00 72 1014.1
20260506141332 66 160 2.0 3.0 0.00 0.00 0.00 72 1013.9
20260506140830 66 205 0.0 1.0 0.00 0.00 0.00 73 1014.1
20260506140327 66 221 2.0 3.0 0.00 0.00 0.00 72 1014.3
20260506135824 67 193 2.0 2.0 0.00 0.00 0.00 72 1014.1
20260506135320 68 158 1.0 1.0 0.00 0.00 0.00 72 1014.1
20260506134817 68 191 1.0 2.0 0.00 0.00 0.00 71 1013.9
20260506134313 67 204 0.0 1.0 0.00 0.00 0.00 72 1014.1
20260506133810 67 200 3.0 4.0 0.00 0.00 0.00 72 1014.2
20260506133307 66 147 0.0 0.0 0.00 0.00 0.00 74 1014.2
20260506132804 65 175 0.0 0.0 0.00 0.00 0.00 75 1014.4
20260506132301 65 154 1.0 2.0 0.00 0.00 0.00 75 1014.5
20260506131759 65 178 2.0 2.0 0.00 0.00 0.00 75 1014.1
20260506131254 65 174 1.0 1.0 0.00 0.00 0.00 76 1013.9
20260506130752 64 161 0.0 1.0 0.00 0.00 0.00 77 1014.0
20260506130249 64 158 2.0 2.0 0.00 0.00 0.00 77 1013.9
20260506125747 63 146 1.0 1.0 0.00 0.00 0.00 78 1014.0
20260506125244 63 174 0.0 0.0 0.00 0.00 0.00 78 1014.1
20260506124743 63 143 4.0 7.0 0.00 0.00 0.00 78 1014.0
20260506124240 63 218 2.0 2.0 0.00 0.00 0.00 78 1014.0
20260506123737 62 182 1.0 2.0 0.00 0.00 0.00 79 1014.3
20260506123236 63 176 0.0 1.0 0.00 0.00 0.00 79 1014.1
20260506122732 63 197 3.0 6.0 0.00 0.00 0.00 79 1014.1
20260506122229 62 234 5.0 7.0 0.00 0.00 0.00 79 1014.4
20260506121728 63 180 1.0 1.0 0.00 0.00 0.00 79 1014.4
20260506121224 63 181 1.0 1.0 0.00 0.00 0.00 79 1014.4
20260506120722 63 219 2.0 2.0 0.00 0.00 0.00 79 1014.7
20260506120219 62 166 0.0 0.0 0.00 0.00 0.00 81 1014.7
20260506115717 62 153 1.0 2.0 0.00 0.00 0.00 80 1014.6
20260506115215 62 166 0.0 0.0 0.00 0.00 0.00 80 1014.7
20260506114712 61 163 1.0 1.0 0.00 0.00 0.00 81 1014.7
20260506114210 61 217 2.0 3.0 0.00 0.00 0.00 81 1014.5
20260506113708 61 197 0.0 0.0 0.00 0.00 0.00 82 1014.7
20260506113205 61 225 1.0 2.0 0.00 0.00 0.00 82 1014.6
20260506112701 60 172 1.0 1.0 0.00 0.00 0.00 82 1014.5
20260506112159 60 144 2.0 2.0 0.00 0.00 0.00 82 1014.4
20260506111656 60 175 0.0 1.0 0.00 0.00 0.00 84 1014.5
20260506111154 58 154 0.0 0.0 0.00 0.00 0.00 88 1014.3
20260506110651 57 171 0.0 0.0 0.00 0.00 0.00 88 1014.7
20260506110148 57 259 0.0 2.0 0.00 0.00 0.00 89 1014.7
20260506105645 57 156 1.0 1.0 0.00 0.00 0.00 90 1014.7
20260506105142 57 165 0.0 1.0 0.00 0.00 0.00 91 1014.5
20260506104640 57 184 0.0 0.0 0.00 0.00 0.00 92 1014.5
20260506104137 56 175 0.0 0.0 0.00 0.00 0.00 92 1014.3
20260506103634 55 177 0.0 0.0 0.00 0.00 0.00 93 1014.5
20260506103131 55 162 0.0 0.0 0.00 0.00 0.00 93 1014.7
20260506102629 54 177 0.0 0.0 0.00 0.00 0.00 93 1014.5
20260506102126 54 195 1.0 2.0 0.00 0.00 0.00 93 1014.6
20260506101623 53 191 0.0 0.0 0.00 0.00 0.00 93 1014.5
20260506101120 53 191 0.0 0.0 0.00 0.00 0.00 93 1014.4
20260506100619 53 161 0.0 0.0 0.00 0.00 0.00 93 1014.5
20260506100116 53 161 0.0 0.0 0.00 0.00 0.00 92 1014.3
20260506095615 52 161 0.0 0.0 0.00 0.00 0.00 92 1014.2
20260506095111 52 161 0.0 0.0 0.00 0.00 0.00 92 1014.3
20260506094608 52 161 0.0 0.0 0.00 0.00 0.00 92 1014.1
20260506094106 52 161 0.0 0.0 0.00 0.00 0.00 92 1014.3
20260506093604 52 161 0.0 0.0 0.00 0.00 0.00 92 1014.3
20260506093101 52 161 0.0 0.0 0.00 0.00 0.00 92 1014.1
20260506092559 53 161 0.0 0.0 0.00 0.00 0.00 91 1014.4
20260506092055 52 161 0.0 0.0 0.00 0.00 0.00 91 1014.4
20260506091554 53 161 0.0 0.0 0.00 0.00 0.00 91 1014.3
20260506091051 53 161 0.0 0.0 0.00 0.00 0.00 91 1014.4
20260506090549 53 161 0.0 0.0 0.00 0.00 0.00 91 1014.3
20260506090045 53 161 0.0 0.0 0.00 0.00 0.00 91 1014.5
20260506085542 53 161 0.0 0.0 0.00 0.00 0.00 91 1014.7
20260506085038 54 161 0.0 0.0 0.00 0.00 0.00 90 1014.6
20260506084535 54 161 0.0 0.0 0.00 0.00 0.00 90 1014.6
20260506084031 54 161 0.0 0.0 0.00 0.00 0.00 90 1014.5
20260506083529 55 161 0.0 0.0 0.00 0.00 0.00 90 1014.5
20260506083026 55 159 0.0 0.0 0.00 0.00 0.00 90 1014.4
20260506082523 55 159 0.0 0.0 0.00 0.00 0.00 90 1014.6
20260506082018 55 159 0.0 0.0 0.00 0.00 0.00 90 1014.8
20260506081517 55 159 0.0 0.0 0.00 0.00 0.00 89 1014.5
20260506081014 55 159 0.0 0.0 0.00 0.00 0.00 89 1014.7
20260506080511 55 159 0.0 0.0 0.00 0.00 0.00 89 1014.8
20260506073455 56 154 1.0 1.0 0.00 0.00 0.00 87 1014.9
20260506072952 56 154 1.0 1.0 0.00 0.00 0.00 87 1014.9
20260506072449 56 162 0.0 0.0 0.00 0.00 0.00 87 1014.8
20260506071947 56 161 1.0 1.0 0.00 0.00 0.00 87 1015.0
20260506071444 56 162 0.0 0.0 0.00 0.00 0.00 87 1015.0
20260506070941 56 147 1.0 1.0 0.00 0.00 0.00 87 1015.0
20260506070438 56 144 1.0 1.0 0.00 0.00 0.00 86 1015.0
20260506062416 56 170 0.0 0.0 0.00 0.00 0.00 85 1014.9
20260506061911 57 178 0.0 0.0 0.00 0.00 0.00 85 1015.0
20260506061408 57 173 0.0 0.0 0.00 0.00 0.00 84 1014.9
20260506060906 57 176 0.0 0.0 0.00 0.00 0.00 84 1014.9
20260506060404 57 192 1.0 1.0 0.00 0.00 0.00 84 1014.9
20260506051336 59 165 0.0 0.0 0.00 0.00 0.00 81 1015.3
20260506050833 59 162 0.0 0.0 0.00 0.00 0.00 81 1015.3
20260506050331 59 228 0.0 1.0 0.00 0.00 0.00 80 1015.3
20260506044821 59 165 0.0 0.0 0.00 0.00 0.00 80 1015.5
20260506044319 60 167 0.0 0.0 0.00 0.00 0.00 79 1015.4
20260506043816 60 160 1.0 1.0 0.00 0.00 0.00 79 1015.5
20260506043313 60 169 1.0 1.0 0.00 0.00 0.00 79 1015.3
20260506042812 60 171 0.0 0.0 0.00 0.00 0.00 78 1015.2
20260506042310 60 175 0.0 0.0 0.00 0.00 0.00 78 1015.4
20260506041809 60 198 1.0 1.0 0.00 0.00 0.00 77 1015.1
20260506041305 61 164 0.0 0.0 0.00 0.00 0.00 77 1015.4
20260506040802 61 172 0.0 0.0 0.00 0.00 0.00 76 1015.0
20260506040259 61 158 0.0 0.0 0.00 0.00 0.00 76 1015.2
20260506035756 61 167 0.0 0.0 0.00 0.00 0.00 75 1015.2
20260506035253 61 160 0.0 0.0 0.00 0.00 0.00 75 1015.3
20260506034750 62 177 0.0 0.0 0.00 0.00 0.00 74 1015.5
20260506034247 62 172 0.0 0.0 0.00 0.00 0.00 74 1015.3
20260506033744 62 168 0.0 0.0 0.00 0.00 0.00 73 1015.3
20260506033241 62 178 1.0 1.0 0.00 0.00 0.00 73 1015.3
20260506032738 62 138 1.0 1.0 0.00 0.00 0.00 72 1015.3
20260506032235 62 180 0.0 1.0 0.00 0.00 0.00 72 1015.2
20260506031732 63 167 0.0 0.0 0.00 0.00 0.00 72 1015.0
20260506031229 63 147 0.0 0.0 0.00 0.00 0.00 71 1015.1
20260506030727 63 175 1.0 2.0 0.00 0.00 0.00 72 1014.9
20260506030225 63 189 0.0 0.0 0.00 0.00 0.00 71 1015.2
20260506025721 63 157 0.0 1.0 0.00 0.00 0.00 71 1015.0
20260506025218 63 163 0.0 1.0 0.00 0.00 0.00 71 1015.0
20260506024715 64 178 0.0 1.0 0.00 0.00 0.00 70 1015.0
20260506024211 64 227 4.0 6.0 0.00 0.00 0.00 70 1015.2
20260506023707 64 203 0.0 0.0 0.00 0.00 0.00 69 1015.1
20260506023204 64 174 0.0 0.0 0.00 0.00 0.00 69 1015.3
20260506022656 64 180 2.0 4.0 0.00 0.00 0.00 69 1015.3
20260506022154 64 217 1.0 2.0 0.00 0.00 0.00 69 1015.2
20260506021652 64 175 1.0 1.0 0.00 0.00 0.00 69 1014.9
20260506021148 64 166 4.0 8.0 0.00 0.00 0.00 69 1014.9
20260506020645 65 172 1.0 2.0 0.00 0.00 0.00 68 1014.9
20260506020143 65 214 2.0 3.0 0.00 0.00 0.00 68 1014.8
20260506015640 65 186 1.0 1.0 0.00 0.00 0.00 68 1014.8
20260506015137 65 208 0.0 1.0 0.00 0.00 0.00 68 1014.9